Weather History for Savanna, IL

Change the Weather History Date:

Friday, March 7, 2014

  Actual Average (KCWI) Record (KCWI)
Temperature  
Mean Temperature 28 °F -  
Max Temperature 44 °F 44 °F 74 °F (1987)
Min Temperature 11 °F 25 °F -8 °F (1960)
Degree Days  
Heating Degree Days 38    
Moisture  
Dew Point 23 °F    
Average Humidity 78    
Maximum Humidity 95    
Minimum Humidity 52    
Precipitation  
Precipitation 0.00 in - - ()
Sea Level Pressure  
Sea Level Pressure 29.94 in    
Wind  
Wind Speed 3 mph (WSW)    
Max Wind Speed 9 mph    
Max Gust Speed -    
Visibility 6 miles    
Events      
Averages and records for this station are not official NWS values.
T = Trace of Precipitation, MM = Missing Value Source: NWS Daily Summary

Daily Weather History Graph

Daily Weather History Graph

Search for Another Location

Airport:

Trip Planner

Search our weather history database for the weather conditions in past years. The results will help you decide how hot, cold, wet, or windy it might be!

Date:

Astronomy

Mar. 07, 2014 Rise Set
Actual Time 6:25 AM CST 5:57 PM CST
Civil Twilight 5:57 AM CST 6:25 PM CST
Nautical Twilight 5:25 AM CST 6:58 PM CST
Astronomical Twilight 4:53 AM CST 7:30 PM CST
Moon 10:12 AM CST (3/7) 12:08 AM CST (3/7)
Length of Visible Light 12h 27m
Length of Day
11h 32m
Waxing Crescent, 42% of the Moon is Illuminated
Mar 7
Waxing Crescent
Mar 8
First Quarter
Mar 16
Full
Mar 23
Last Quarter
Mar 30
New

Hourly Weather History & Observations

Time (CST) Temp. Windchill Dew Point Humidity Pressure Visibility Wind Dir Wind Speed Gust Speed Precip Events Conditions
12:15 AM 14.5 °F 7.1 °F 11.8 °F 89% 30.04 in 7.0 mi South 4.6 mph - N/A   Clear
12:35 AM 14.0 °F - 11.5 °F 90% 30.03 in 7.0 mi Calm Calm - N/A   Clear
12:55 AM 14.9 °F - 12.2 °F 89% 30.04 in 7.0 mi Calm Calm - N/A   Clear
1:15 AM 14.7 °F - 12.2 °F 90% 30.02 in 7.0 mi Calm Calm - N/A   Clear
1:35 AM 13.8 °F - 11.5 °F 90% 30.01 in 5.0 mi Calm Calm - N/A   Clear
1:55 AM 13.8 °F - 11.3 °F 90% 30.02 in 5.0 mi Calm Calm - N/A   Clear
2:15 AM 13.3 °F - 10.9 °F 90% 29.99 in 5.0 mi Calm Calm - N/A   Clear
2:35 AM 15.4 °F - 13.6 °F 93% 29.99 in 5.0 mi Calm Calm - N/A   Clear
2:55 AM 13.3 °F - 10.9 °F 90% 29.99 in 5.0 mi Calm Calm - N/A   Clear
3:15 AM 12.2 °F - 9.3 °F 88% 29.99 in 4.0 mi Calm Calm - N/A   Clear
3:35 AM 12.0 °F - 9.7 °F 90% 29.98 in 3.0 mi Calm Calm - N/A   Clear
3:55 AM 14.0 °F - 11.8 °F 91% 29.97 in 4.0 mi Calm Calm - N/A   Clear
4:15 AM 12.6 °F - 10.2 °F 90% 29.97 in 2.5 mi Calm Calm - N/A   Clear
4:35 AM 11.7 °F - 9.0 °F 89% 29.96 in 3.0 mi Calm Calm - N/A   Clear
4:50 AM 12.2 °F - 9.9 °F 90% 29.96 in 4.0 mi Calm Calm - N/A   Clear
5:15 AM 13.3 °F - 10.4 °F 88% 29.96 in 3.0 mi Calm Calm - N/A   Clear
5:35 AM 12.0 °F - 9.1 °F 88% 29.96 in 2.5 mi Calm Calm - N/A   Clear
5:55 AM 12.6 °F - 9.9 °F 89% 29.96 in 3.0 mi Calm Calm - N/A   Clear
6:15 AM 13.6 °F - 11.7 °F 92% 29.95 in 2.5 mi Calm Calm - N/A   Clear
6:35 AM 11.7 °F - 9.0 °F 89% 29.96 in 1.5 mi Calm Calm - N/A   Mist
6:55 AM 12.2 °F 6.1 °F 9.3 °F 88% 29.95 in 1.5 mi SE 3.5 mph - N/A   Mist
7:15 AM 11.5 °F - 8.6 °F 88% 29.94 in 1.8 mi Calm Calm - N/A   Mist
7:35 AM 14.9 °F - 12.6 °F 90% 29.95 in 2.0 mi Calm Calm - N/A   Clear
7:55 AM 16.7 °F - 14.9 °F 93% 29.94 in 2.5 mi Calm Calm - N/A   Clear
8:15 AM 19.9 °F 14.9 °F 18.5 °F 94% 29.94 in 3.0 mi SSE 3.5 mph - N/A   Clear
8:35 AM 20.3 °F - 18.7 °F 93% 29.93 in 4.0 mi Calm Calm - N/A   Clear
8:55 AM 25.0 °F 19.3 °F 23.7 °F 95% 29.93 in 5.0 mi South 4.6 mph - N/A   Clear
9:15 AM 28.2 °F - 24.8 °F 87% 29.92 in 5.0 mi Calm Calm - N/A   Clear
9:30 AM 30.4 °F 24.5 °F 23.4 °F 75% 29.92 in 7.0 mi SE 5.8 mph - N/A   Clear
9:55 AM 32.5 °F 26.2 °F 23.9 °F 70% 29.92 in 7.0 mi SSE 6.9 mph - N/A   Clear
10:15 AM 34.9 °F 27.7 °F 25.7 °F 69% 29.91 in 7.0 mi SSE 9.2 mph - N/A   Clear
10:35 AM 36.3 °F 31.6 °F 26.6 °F 68% 29.90 in 7.0 mi SSE 5.8 mph - N/A   Clear
10:55 AM 36.5 °F 31.8 °F 27.1 °F 69% 29.90 in 7.0 mi SSE 5.8 mph - N/A   Clear
11:15 AM 36.9 °F 31.4 °F 27.9 °F 70% 29.89 in 7.0 mi SSE 6.9 mph - N/A   Clear
11:35 AM 38.1 °F 32.9 °F 28.2 °F 68% 29.89 in 7.0 mi SSE 6.9 mph - N/A   Clear
11:55 AM 39.2 °F 33.0 °F 27.5 °F 63% 29.88 in 10.0 mi South 9.2 mph - N/A   Clear
12:15 PM 40.3 °F 34.9 °F 27.3 °F 60% 29.88 in 10.0 mi South 8.1 mph - N/A   Clear
12:35 PM 41.0 °F 35.8 °F 27.5 °F 59% 29.88 in 10.0 mi South 8.1 mph - N/A   Clear
12:55 PM 41.5 °F 37.8 °F 28.4 °F 60% 29.87 in 10.0 mi SSE 5.8 mph - N/A   Clear
1:15 PM 42.3 °F 39.4 °F 28.0 °F 57% 29.87 in 10.0 mi SSE 4.6 mph - N/A   Scattered Clouds
1:30 PM 41.9 °F 38.2 °F 28.4 °F 59% 29.87 in 10.0 mi SSE 5.8 mph - N/A   Scattered Clouds
1:55 PM 41.7 °F 38.0 °F 28.8 °F 60% 29.86 in 10.0 mi South 5.8 mph - N/A   Clear
2:15 PM 44.6 °F 39.7 °F 28.0 °F 52% 29.87 in 10.0 mi SW 9.2 mph - N/A   Clear
2:35 PM 44.6 °F 40.2 °F 28.4 °F 53% 29.86 in 10.0 mi WSW 8.1 mph - N/A   Clear
2:55 PM 44.8 °F 40.4 °F 28.9 °F 54% 29.86 in 10.0 mi SW 8.1 mph - N/A   Clear
3:15 PM 44.2 °F 39.7 °F 29.1 °F 55% 29.86 in 10.0 mi SW 8.1 mph - N/A   Clear
3:35 PM 44.1 °F 39.5 °F 29.3 °F 56% 29.87 in 10.0 mi SW 8.1 mph - N/A   Clear
3:55 PM 43.9 °F 39.9 °F 29.8 °F 58% 29.87 in 10.0 mi SW 6.9 mph - N/A   Clear
4:15 PM 43.7 °F 41.1 °F 30.2 °F 59% 29.87 in 10.0 mi West 4.6 mph - N/A   Scattered Clouds
4:35 PM 43.3 °F 39.2 °F 30.2 °F 60% 29.88 in 10.0 mi West 6.9 mph - N/A   Mostly Cloudy
4:55 PM 42.8 °F 39.3 °F 30.6 °F 62% 29.89 in 10.0 mi West 5.8 mph - N/A   Mostly Cloudy
5:15 PM 41.9 °F 38.2 °F 30.9 °F 65% 29.89 in 7.0 mi West 5.8 mph - N/A   Scattered Clouds
5:35 PM 41.2 °F 36.6 °F 32.0 °F 70% 29.91 in 7.0 mi NW 6.9 mph - N/A   Mostly Cloudy
5:55 PM 40.3 °F 36.3 °F 32.0 °F 72% 29.91 in 5.0 mi NW 5.8 mph - N/A   Haze
6:15 PM 39.7 °F 36.5 °F 32.2 °F 74% 29.92 in 5.0 mi WNW 4.6 mph - N/A   Haze
6:35 PM 39.2 °F 35.0 °F 32.4 °F 76% 29.93 in 5.0 mi WNW 5.8 mph - N/A   Haze
6:55 PM 39.2 °F - 32.4 °F 76% 29.93 in 5.0 mi Calm Calm - N/A   Haze
7:15 PM 38.3 °F 35.9 °F 32.2 °F 79% 29.94 in 5.0 mi West 3.5 mph - N/A   Haze
7:35 PM 38.3 °F 34.8 °F 32.4 °F 79% 29.95 in 5.0 mi NW 4.6 mph - N/A   Haze
7:55 PM 37.8 °F 33.3 °F 32.2 °F 80% 29.96 in 5.0 mi NW 5.8 mph - N/A   Haze
8:15 PM 37.9 °F 32.7 °F 32.0 °F 79% 29.96 in 5.0 mi WNW 6.9 mph - N/A   Haze
8:35 PM 37.4 °F 31.4 °F 32.0 °F 81% 29.97 in 5.0 mi NW 8.1 mph - N/A   Haze
8:55 PM 37.4 °F 32.8 °F 32.0 °F 81% 29.98 in 5.0 mi NW 5.8 mph - N/A   Haze
9:15 PM 37.2 °F 33.6 °F 32.0 °F 81% 29.99 in 5.0 mi WNW 4.6 mph - N/A   Haze
9:35 PM 36.9 °F 33.1 °F 32.0 °F 83% 29.99 in 5.0 mi WNW 4.6 mph - N/A   Haze
9:55 PM 36.5 °F 32.7 °F 32.0 °F 84% 29.99 in 5.0 mi WNW 4.6 mph - N/A   Overcast
10:15 PM 36.1 °F 30.6 °F 32.0 °F 85% 29.99 in 5.0 mi NW 6.9 mph - N/A   Overcast
10:35 PM 36.5 °F 29.7 °F 32.2 °F 84% 29.99 in 5.0 mi NNW 9.2 mph - N/A   Overcast
10:55 PM 36.5 °F 30.3 °F 32.0 °F 84% 30.00 in 4.0 mi NW 8.1 mph - N/A   Overcast
11:15 PM 36.7 °F 31.2 °F 32.0 °F 83% 30.01 in 5.0 mi NW 6.9 mph - N/A   Haze
11:35 PM 36.5 °F 30.3 °F 32.0 °F 84% 30.01 in 5.0 mi NNW 8.1 mph - N/A   Haze
11:55 PM 36.7 °F 30.5 °F 32.0 °F 83% 30.01 in 5.0 mi NNW 8.1 mph - N/A   Haze